Flag for Germany Weather past 2 weeks in Herford, North Rhine-Westphalia, Germany

Now
63 °F

Broken clouds.


Feels Like: 63 °F
Forecast: 43 / 71 °F
Wind: 17 mph from West

Location: Bueckeburg

Current Time: Jun 3, 2015 at 3:54:25 PM

Latest Report: Jun 3, 2015 at 3:20 PM


Visibility: N/A

Pressure: 30.18 "Hg

Humidity: 49%

Dew point: 43 °F

Location of HerfordLocation

Historic Weather in Herford — Graph

°F

Herford temperature yesterday

Maximum temperature yesterday: 70 °F (at 4:20 PM)
Minimum temperature yesterday: 54 °F (at 2:20 AM)
Average temperature yesterday: 63 °F

Past Weeks' High & Low Weather Summary

 TemperatureHumidityPressure
High70 °F (Jun 2, 4:20 PM)100% (May 24, 6:20 AM)30.33 "Hg (May 24, 6:20 AM)
Low39 °F (May 24, 4:20 AM)39% (May 21, 5:20 PM)29.68 "Hg (May 29, 7:20 PM)
Average55 °F68%30.00 "Hg
* Reported May 19 2:20 PM — Jun 3 2:20 PM, Herford, Weather by CustomWeather, © 2015

Note: Actual official high and low records may vary slightly from our data, if they occured in-between our weather recording intervals... More about our weather records

Advertising

Herford weather history for previous 24 hours

 ConditionsComfort  
Time TempWeatherWind HumidityBarometerVisibility
2:20 PM
Wed, Jun 3
64 °FPartly sunny.17 mph49%30.15 "HgN/A
1:20 PM63 °FPartly sunny.16 mph49%30.12 "HgN/A
12:20 PM63 °FPartly sunny.20 mph49%30.09 "HgN/A
11:20 AM61 °FPartly sunny.21 mph59%30.07 "HgN/A
10:20 AM61 °FPartly sunny.20 mph63%30.04 "HgN/A
9:20 AM61 °FPartly sunny.14 mph72%30.04 "HgN/A
8:20 AM59 °FPartly sunny.10 mph82%29.98 "HgN/A
7:20 AM57 °FPartly sunny.10 mph94%29.98 "HgN/A
6:20 AM57 °FDrizzle. Partly sunny.9 mph94%29.95 "HgN/A
5:20 AM59 °FPassing clouds.13 mph88%29.95 "HgN/A
4:20 AM61 °FPassing clouds.14 mph88%29.92 "HgN/A
3:20 AM66 °FPassing clouds.15 mph64%29.89 "HgN/A
2:20 AM66 °FPassing clouds.13 mph64%29.89 "HgN/A
1:20 AM66 °FPassing clouds.17 mph64%29.89 "HgN/A
12:20 AM66 °FPassing clouds.17 mph60%29.89 "HgN/A
11:20 PM
Tue, Jun 2
66 °FPassing clouds.17 mph64%29.89 "HgN/A
10:20 PM66 °FPartly sunny.14 mph64%29.89 "HgN/A
9:20 PM66 °FPartly sunny.13 mph64%29.89 "HgN/A
8:20 PM68 °FPartly sunny.14 mph60%29.86 "HgN/A
7:20 PM68 °FPartly sunny.15 mph60%29.86 "HgN/A
6:46 PM68 °FPartly sunny.24 mph60%29.86 "HgN/A
6:20 PM68 °FBroken clouds.18 mph60%29.86 "HgN/A
5:20 PM70 °FLight rain. Partly sunny.23 mph53%29.83 "HgN/A
4:20 PM70 °FPartly sunny.25 mph53%29.80 "HgN/A
3:20 PM68 °FBroken clouds.18 mph56%29.83 "HgN/A
Weather by CustomWeather, © 2015

See weather overviewHow to use our weather pages